Regional Weather Roundup
Issued by NWS

Home | Current Version | Previous Version | Graphics & Text | Print | Product List | Glossary On
Versions: 1 2 3 4 5 6 7 8 9 10 11 12 13 14 15 16 17 18 19 20 21 22 23 24 25 26 27 28 29 30 31 32 33 34 35 36 37 38 39 40 41 42 43 44 45 46 47 48 49 50
000
ASUS43 KDTX 030410
RWRMI
MICHIGAN HOURLY REGIONAL WEATHER ROUNDUP
NATIONAL WEATHER SERVICE DETROIT/PONTIAC MI
1100 PM EST MON MAR 02 2015

NOTE: "FAIR" INDICATES FEW OR NO CLOUDS BELOW 12,000 FEET WITH NO
SIGNIFICANT WEATHER AND/OR OBSTRUCTION TO VISIBILITY.

MIZ047>049-052>055-059>063-066>070-074>076-081>083-030500-
SOUTHEAST LOWER MICHIGAN

CITY           SKY/WX    TMP DP  RH WIND       PRES   REMARKS
ADRIAN         FAIR      20  13  74 SW5       30.37S WCI  13
ALMA           FAIR      19  15  83 CALM      30.32F
ANN ARBOR      FAIR      22  13  68 S6        30.36S WCI  14
BAD AXE        FAIR       5   2  88 SE3       30.34F
CARO           FAIR      10   6  81 CALM      30.33F
DETROIT CITY   FAIR      23  13  65 CALM      30.37S
DETROIT        CLOUDY    24  15  68 S5        30.38S WCI  18
FLINT          FAIR      18   9  68 S5        30.33F WCI  11
GROSSE ILE     FAIR      19  16  86 S6        30.37S WCI  11
HILLSDALE      MOCLDY    22  14  72 S6        30.32S WCI  14
HOWELL         FAIR      21  12  69 S3        30.33S

CITY           SKY/WX    TMP DP  RH WIND       PRES   REMARKS
JACKSON        FAIR      24  13  62 S7        30.33S WCI  16
LAMBERTVILLE   FAIR      25  16  68 SW5       30.38S WCI  19
LANSING        FAIR      24  14  65 S3        30.34S
LAPEER         FAIR       9   5  84 CALM      30.34F
MASON          FAIR      22  14  69 CALM      30.33S
MONROE         FAIR      21  16  79 SW5       30.37F WCI  15
MT. CLEMENS    CLOUDY    12   8  85 E3        30.35S
PONTIAC        MOCLDY    18  11  74 CALM      30.32F
PORT HOPE        N/A     18   7  62 SW6       30.33F WCI  10
PORT HURON     FAIR      16   9  73 CALM      30.38F
TRI CITIES     FAIR      23  12  62 S3        30.33F
TROY           FAIR      26  12  56 CALM      30.37F
SAGINAW HB     FAIR      19  12  73 S6        30.33F WCI  11
$$
MIZ043>046-050>051-056>058-064>065-071>073-077>080-030500-
SOUTHWEST LOWER MICHIGAN

CITY           SKY/WX    TMP DP  RH WIND       PRES   REMARKS
BATTLE CREEK   CLOUDY    26  14  60 S7        30.33F WCI  18
BENTON HARBOR  CLOUDY    24  17  74 SE3       30.33F
BIG RAPIDS     FAIR      19  10  69 CALM      30.28F
COLDWATER      CLOUDY    23  14  68 S3        30.33F
FREMONT        FAIR      21  11  65 S3        30.30F
HOLLAND        CLOUDY    23  15  71 SE5       30.33F WCI  17
GRAND RAPIDS   CLOUDY    23  14  68 S6        30.32F WCI  16
IONIA          FAIR      22  16  75 S6        30.31F WCI  15
KALAMAZOO      CLOUDY    25  14  63 S9        30.33F WCI  15
LUDINGTON      FAIR      19  12  73 SE3       30.30F
MARSHALL       MOCLDY    24  13  64 S5        30.33S WCI  18
MOUNT PLEASANT FAIR      22  13  69 CALM      30.30F
MUSKEGON       FAIR      24  15  68 S6        30.32F WCI  17
SOUTH HAVEN    CLOUDY    25  16  67 SE3       30.33F
$$
MIZ016>042-030500-
NORTHERN LOWER MICHIGAN

CITY           SKY/WX    TMP DP  RH WIND       PRES   REMARKS
ALPENA         FAIR       3  -3  76 CALM      30.32F
BEAVER ISLAND  FAIR      12   6  79 CALM      30.27F
BELLAIRE       FAIR       2  -1  85 CALM      30.30F
CADILLAC       FAIR       5   1  80 CALM      30.24F
CHARLEVOIX     FAIR       3  -1  85 CALM      30.31F
FRANKFORT      FAIR       8   5  87 CALM      30.29F
GAYLORD        FAIR       1  -6  72 CALM      30.24F
GRAYLING       FAIR      -6 -12  75 CALM      30.28F
HARBOR SPRINGS FAIR       4  -1  81 CALM      30.28F
HOUGHTON LAKE  FAIR       4  -2  76 CALM      30.27F
MANISTEE       FAIR      12   9  85 E3        30.29F
OSCODA         FAIR       6  -4  64 CALM      30.32F
PELLSTON       FAIR      -2  -7  79 CALM      30.29F
ROGERS CITY    FAIR       6   2  83 SW3       30.32F
TRAVERSE CITY  FAIR       6   1  80 CALM      30.29F
$$
MIZ007>008-015-030500-
EASTERN UPPER MICHIGAN

CITY           SKY/WX    TMP DP  RH WIND       PRES   REMARKS
KINROSS        FAIR       7   3  85 S3        30.27F
MACKINAC ISLAN FAIR      14   5  69 S8        30.27F WCI   3
NEWBERRY       FAIR      12   8  82 S9        30.23F WCI   0
S. S. MARIE    FAIR       4  -1  80 E5        30.28F WCI  -5
MUNISING         N/A     19   7  59 S7        30.22F WCI  10
$$
MIZ004>006-011>014-085-030500-
CENTRAL UPPER MICHIGAN

CITY           SKY/WX    TMP DP  RH WIND       PRES   REMARKS
MANISTIQUE     FAIR      20  15  82 S8        30.24F WCI  10
ESCANABA       FAIR      18  12  79 S5        30.26R WCI  11
MENOMINEE      FAIR      19  10  68 SW6       30.25R WCI  11
SAWYER-GWINN   FAIR      14   6  69 S10       30.16F WCI   1
$$
MIZ001>003-009>011-084-030500-
WESTERN UPPER MICHIGAN

CITY           SKY/WX    TMP DP  RH WIND       PRES   REMARKS
IRON MOUNTAIN  FAIR      15   4  61 SE6       30.16F WCI   6
HOUGHTON       FAIR       5   4  95 CALM      30.09F
COPPER HARBOR    N/A     18   9  68 VRB7      30.12F WCI   9
IRONWOOD       FAIR      18   1  49 S8G17     30.07F WCI   7
$$

ABBREVIATIONS USED IN REMARKS
   TC - TEMPERATURE IN CELSIUS
  WCI - WIND CHILL INDEX
   HX - HEAT INDEX
  VSB - VISIBILITY



USA.gov is the U.S. government's official web portal to all federal, state and local government web resources and services.